Terug naar catalogus

TITAN 4 CENTAUR R/B

ActiefGEO
NORAD 23568·ROCKET BODY·🇺🇸 United States

Gelanceerd May 14, 1995 vanaf Cape Canaveral Space Force Station

Loading…

TLE

VersSource: Space-Track

Epoch: Sep 10, 2026, 22:03 UTC

1 23568U 95022B   26253.91882387  .00000059  00000-0  00000-0 0  9990
2 23568  18.3376   5.3172 0006550 344.6016  15.3963  1.00556437 26761

Volg TITAN 4 CENTAUR R/B in realtime met AllMySat

Download on the App Store